Regional Weather Roundup
Issued by NWS

Home | Current Version | Previous Version | Text Only | Print | Product List | Glossary Off
Versions: 1 2 3 4 5 6 7 8 9 10 11 12 13 14 15 16 17 18 19 20 21 22 23 24 25 26 27 28 29 30 31 32 33 34 35 36 37 38 39 40 41 42 43 44 45 46 47 48 49 50

000
ASUS43 KDMX 050506
RWRIA

WEATHER ROUNDUP FOR IOWA
NATIONAL WEATHER SERVICE DES MOINES IA
1100 PM CST SUN DEC 04 2016

NOTE: "FAIR" INDICATES FEW OR NO CLOUDS BELOW 12,000 FEET WITH NO
SIGNIFICANT WEATHER AND/OR OBSTRUCTIONS TO VISIBILITY.

* - THESE STATIONS ARE NOT NWS STATIONS...THUS NOT UNDER NWS
QUALITY CONTROL.  THEY ALSO DO NOT REPORT WEATHER SUCH
AS PRECIPITATION OR FOG.

IAZ001>003-012>014-020>022-031>034-043>046-050600-
   NORTHWEST IOWA

CITY           SKY/WX    TMP DP  RH WIND       PRES   REMARKS
CARROLL *      CLEAR     34  34 100 SW14      29.88S WCI  24
CHEROKEE *     CLEAR     32  32 100 S6        29.84S WCI  26
DENISON *      PTCLDY    32  30  93 S9        29.86S WCI  24
LE MARS *      CLEAR     32  32 100 S7        29.83S WCI  26
ORANGE CITY *  CLEAR     30  30 100 CALM      29.81S
SHELDON *      CLEAR     30  32 100 SE7       29.80S WCI  23
SIOUX CITY     CLEAR     31  29  92 SE9       29.84F WCI  23
SPENCER        CLEAR     32  31  96 SW14      29.82F WCI  22
STORM LAKE *   CLEAR     32  30  93 S9        29.84F WCI  24
$$

IAZ055>058-069>071-079>083-090>094-050600-
   SOUTHWEST IOWA

CITY           SKY/WX    TMP DP  RH WIND       PRES   REMARKS
ATLANTIC *     CLEAR     30  30 100 S6        29.91S FOG     WCI  24
AUDUBON *      CLEAR     32  28  86 S5        29.90S WCI  27
CLARINDA *       N/A     32  32 100 S8        29.96S FOG     WCI  25
COUNCIL BLFS * CLEAR     34  32  93 S8        29.89S WCI  27
CRESTON *      CLEAR     32  32 100 S5        29.93F FOG     WCI  27
HARLAN  *      CLEAR     32  32 100 S6        29.93S WCI  26
LAMONI         CLOUDY    32  31  96 S3        29.94F FOG
RED OAK *      CLEAR     32  32 100 CALM      29.92F
SHENANDOAH *   CLEAR     32  32 100 S6        29.93S WCI  26
$$

IAZ047>049-059>061-072>074-084-050600-
   CENTRAL IOWA

CITY           SKY/WX    TMP DP  RH WIND       PRES   REMARKS
AMES           CLEAR     32  32 100 SW6       29.91R WCI  26
ANKENY *       CLEAR     36 N/A N/A SW7       29.93S WCI  30
BOONE *        CLEAR     32  32 100 SW6       29.89S WCI  26
CHARITON *       N/A     34  32  93 SW9       29.95S WCI  26
DES MOINES     CLEAR     33  31  92 SW5       29.93S WCI  29
GRINNELL*      CLEAR     32  32  99 SW12      29.93S FOG     WCI  23
KNOXVILLE *    CLEAR     34  32  93 SW9       29.93S WCI  26
MARSHALLTOWN   PTCLDY    32  32 100 SW12      29.91S FOG     WCI  23
NEWTON *       PTCLDY    32  32 100 SW8       29.93R FOG     WCI  25
PELLA *        CLEAR     34  32  94 SW7       29.96R FOG     WCI  28
PERRY *          N/A     34  33  96 SW8       29.90F WCI  27
$$

IAZ004>006-015-016-023>025-035-036-050600-
   NORTH CENTRAL IOWA

CITY           SKY/WX    TMP DP  RH WIND       PRES   REMARKS
ALGONA *       CLEAR     32  32 100 S10       29.85S WCI  24
CLARION *      CLEAR     30  30 100 S8        29.87S FOG     WCI  23
ESTHERVILLE    CLEAR     32  31  96 SW7       29.82S WCI  26
FORT DODGE *   CLEAR     30  27  86 S5        29.87F WCI  25
MASON CITY     CLEAR     32  31  96 SW10      29.86S WCI  24
FOREST CITY *    N/A     32  32 100 SW6       29.85R WCI  26
WEBSTER CITY * CLEAR     32  32 100 SW12      29.86S FOG     WCI  23
IOWA FALLS *     N/A     32  31  96 SW10      29.90R FOG     WCI  24
$$

IAZ007>011-017>019-026>030-037>042-050>054-066-050600-
   NORTHEAST IOWA

CITY           SKY/WX    TMP DP  RH WIND       PRES   REMARKS
CEDAR RAPIDS   CLOUDY    33  33 100 S6        29.93R WCI  28
CHARLES CITY * FOG       34  34 100 SW10      29.87R VSB 1   WCI  26
CLINTON *      CLOUDY    33  31  92 W14       29.95R WCI  23
DECORAH *      CLOUDY    32  32 100 VRB7G14   29.85S FOG     WCI  26
DUBUQUE        CLOUDY    31  30  96 W12       29.91R WCI  22
MONTICELLO *   CLOUDY    34  32  93 W8        29.93R FOG     WCI  27
OELWEIN *      CLOUDY    32  32 100 S10       29.90R FOG     WCI  24
WATERLOO       PTCLDY    33  30  88 SW12      29.90R FOG     WCI  24
$$

IAZ064-065-067-068-078-050600-
   EAST CENTRAL IOWA

CITY           SKY/WX    TMP DP  RH WIND       PRES   REMARKS
DAVENPORT      CLOUDY    34  31  88 W15       29.96R WCI  24
IOWA CITY      CLOUDY    35  32  88 W6        29.98R WCI  30
MUSCATINE *    CLOUDY    36  32  87 W9        29.99R WCI  29
QUAD CITIES    CLOUDY    35  31  85 W10       29.96R WCI  27
$$

IAZ062-063-075>077-085>089-095>099-050600-
   SOUTHEAST IOWA

CITY           SKY/WX    TMP DP  RH WIND       PRES   REMARKS
BURLINGTON     CLOUDY    34  33  96 W9        29.98R WCI  27
FAIRFIELD *    CLOUDY    34  32  93 SW9       29.97R WCI  26
FORT MADISON * CLOUDY    36  34  93 SW7       29.99R WCI  30
KEOKUK *       CLOUDY    36  34  93 SW7       29.98R WCI  30
OSKALOOSA *    CLOUDY    33  33  96 SW8       29.97R FOG     WCI  27
CENTERVILLE *  CLOUDY    34  32  93 SW8       29.99R WCI  27
OTTUMWA        CLOUDY    35  32  88 SW13      29.96R WCI  26
WASHINGTON *   CLOUDY    34  34 100 W9        29.99R WCI  26
$$

ABBREVIATIONS USED IN REMARKS
   TC - TEMPERATURES IN CELSIUS
  WCI - WIND CHILL INDEX
   HX - HEAT INDEX
  VSB - VISIBILITY
$$





USA.gov is the U.S. government's official web portal to all federal, state and local government web resources and services.